Погода в Гревене

Германия     52°05′30″N   7°36′34″E
темп.,
°C
ветер,
м/с
пор.,
м/с
влажн.,
%
обл.,
%
осадки,
мм/ч
давл.,
гПа
погр.,
м
12 мая, ср
ср1223:00+12сз3698100 0.8 1008345
02:00+11з3697100 0.9 1009310
05:00+11з4897100 0.1 1010368
08:00+10з4108862 0.1 1011401
11:00+14з556814 0.0 10121079
14:00+16з4457100 0.2 10111607
17:00+15сз3360100 0.4 10111205
20:00+14с2374100 0.4 1011102
13 мая, чт
чт1323:00+10св348698 0.0 101180
02:00+9всв249630 0.0 101171
05:00+8св2394100 0.0 101055
08:00+10всв2381100 0.0 1009214
11:00+14ссв2264100 0.0 1008709
14:00+15ссв3355100 0.0 10071156
17:00+15ссв3357100 0.0 10061277
20:00+12всв5682100 0.1 1007467
14 мая, пт
пт1423:00+10св2286100 0.0 100796
02:00+9св1289100 0.0 100756
05:00+8сз0189100 0.0 100624
08:00+10зсз2283100 0.0 1007216
11:00+12сз3573100 0.1 1007934
14:00+12ссз3371100 0.3 10081140
17:00+12ссз2378100 0.3 1008479
20:00+11св128032 0.3 1008172
15 мая, сб
сб1523:00+8св229211 0.0 100922
02:00+7в119318 0.0 100912
05:00+6юв22955 0.0 100825
08:00+9юз359161 0.0 1009305
11:00+13юз467353 0.2 1008966
14:00+16юз675462 0.9 10071626
17:00+16зюз5653100 0.0 10061697
20:00+12зюз5879100 0.7 1006284
16 мая, вс
вс1623:00+10юз41093100 0.6 1007516
02:00+9юз5109455 0.8 1007597
05:00+7ююз38978 0.0 1006198
08:00+10ююз5129010 0.1 1007610
11:00+13юз797544 1.0 10061225
14:00+15юз796392 2.6 10061836
17:00+12зюз7108046 1.7 1005818
20:00+12юз37802 2.6 1005271